Location: Quedlinburg
(51.7921°N, 11.1414°E)
Time: 12:50:00
(UTC+01:00)

DX 1 - Visible Passes

Search period start: 15 March 2026 00:00
Search period end: 25 March 2026 00:00
Orbit: 595 x 603 km, 98.4° (Epoch: 14 March)

Date Brightness Start Highest point End Pass type
(mag) Time Alt. Az. Time Alt. Az. Time Alt. Az.
15 Mar ? 03:04:16 10° NNE 03:07:00 37° NE 03:07:00 37° NE visible
15 Mar ? 04:40:39 10° NNW 04:43:44 20° WNW 04:43:44 20° WNW visible
16 Mar ? 03:15:01 10° NNE 03:18:01 45° NNE 03:18:01 45° NNE visible
16 Mar ? 04:51:41 10° NNW 04:54:23 17° WNW 04:54:45 17° WNW visible
17 Mar ? 01:52:01 10° ENE 01:52:18 11° ENE 01:52:18 11° ENE visible
17 Mar ? 03:25:45 10° NNE 03:29:03 53° NNE 03:29:03 53° NNE visible
17 Mar ? 05:02:49 10° NNW 05:05:01 14° NW 05:05:46 13° WNW visible
18 Mar ? 02:02:07 10° NE 02:03:19 14° ENE 02:03:19 14° ENE visible
18 Mar ? 03:36:32 10° N 03:40:03 57° NNW 03:40:03 57° NNW visible
18 Mar ? 05:14:08 10° NNW 05:15:37 12° NW 05:16:47 11° WNW visible
19 Mar ? 02:12:28 10° NE 02:14:20 17° ENE 02:14:20 17° ENE visible
19 Mar ? 03:47:19 10° N 03:51:04 53° NW 03:51:04 53° NW visible
20 Mar ? 02:22:55 10° NE 02:25:20 21° ENE 02:25:20 21° ENE visible
20 Mar ? 03:58:08 10° N 04:02:04 45° WNW 04:02:04 45° WNW visible
21 Mar ? 02:33:27 10° NE 02:36:20 27° ENE 02:36:20 27° ENE visible
21 Mar ? 04:08:58 10° N 04:12:51 36° WNW 04:13:04 36° WNW visible
22 Mar ? 02:44:02 10° NNE 02:47:19 34° ENE 02:47:19 34° ENE visible
22 Mar ? 04:19:50 10° N 04:23:31 30° WNW 04:24:03 29° WNW visible
23 Mar ? 02:54:40 10° NNE 02:58:19 43° E 02:58:19 43° E visible
23 Mar ? 04:30:43 10° N 04:34:10 25° WNW 04:35:02 23° W visible
24 Mar ? 03:05:19 10° NNE 03:09:17 56° E 03:09:17 56° E visible
24 Mar ? 04:41:39 10° NNW 04:44:46 21° WNW 04:46:02 18° W visible
